Regional Weather Roundup
Issued by NWS

Home | Current Version | Previous Version | Text Only | Print | Product List | Glossary On
Versions: 1 2 3 4 5 6 7 8 9 10 11 12 13 14 15 16 17 18 19 20 21 22 23 24 25 26 27 28 29 30 31 32 33 34 35 36 37 38 39 40 41 42 43 44 45 46 47 48 49 50
000
ASUS43 KTOP 290908
RWRKS

WEATHER ROUNDUP FOR KANSAS
NATIONAL WEATHER SERVICE GOODLAND KS
400 AM CDT SAT JUL 29 2017

NOTE:  "FAIR" INDICATES FEW OR NO CLOUDS BELOW 12,000 FEET WITH NO
SIGNIFICANT WEATHER AND/OR OBSTRUCTIONS TO VISIBILITY.

KSZ001>006-013>018-027>032-041>047-291000-
NORTHWEST KANSAS

CITY           SKY/WX    TMP DP  RH WIND       PRES   REMARKS
GOODLAND       CLOUDY    66  62  87 CALM      30.11R
HAYS           CLOUDY    73  66  78 SE9       30.05R
HILL CITY      CLOUDY    72  67  84 NE6       30.08R
RUSSELL        CLOUDY    72  65  78 SE13      30.02R
$$

KSZ061>065-074>080-084>089-291000-
SOUTHWEST KANSAS

CITY           SKY/WX    TMP DP  RH WIND       PRES   REMARKS
DODGE CITY     PTCLDY    72  62  71 SE10      30.04R
ELKHART          N/A     65  52  63 NW13        N/A
GARDEN CITY    CLOUDY    71  61  70 SW7       30.07R
GREAT BEND     CLOUDY    72  66  81 SE10      30.04R
LIBERAL        PTCLDY    72  63  73 E9        30.05
PRATT          CLEAR     69  63  81 SE8       30.03S
$$

KSZ066>073-081>083-090>101-291000-
SOUTHEAST KANSAS

CITY           SKY/WX    TMP DP  RH WIND       PRES   REMARKS
CHANUTE        CLEAR     69  61  75 NE8       30.01R
COFFEYVILLE    CLEAR     67  63  87 NE5       29.98S
HUTCHINSON     PTCLDY    70  64  81 SE6       30.03R
MEDICINE LODGE   N/A     73  65  75 E6        30.00S
NEWTON         PTCLDY    68  62  81 E7        30.03S
PARSONS        CLEAR     67  63  87 CALM      30.00S
WICHITA INTL   PTCLDY    72  62  71 E8        30.01S
WICHITA JABRA  PTCLDY    68  62  81 E6        30.01S
WICHITA MCCONL PTCLDY    71  61  69 E5        30.01S
WINFIELD       CLEAR     73  61  65 E6        30.00F
$$

KSZ007>012-019>026-033>040-048>060-102>105-291000-
NORTHEAST KANSAS

CITY           SKY/WX    TMP DP  RH WIND       PRES   REMARKS
CONCORDIA      CLOUDY    67  66  97 CALM      30.04R
EMPORIA        PTCLDY    65  62  90 E3        30.02S
LAWRENCE       CLOUDY    67  66  97 CALM      30.03R
MANHATTAN      CLOUDY    69  66  90 CALM      30.03R
MARYSVILLE     PTCLDY    66  63  88 CALM      30.04S
OLATHE IND     MOCLDY    68  62  81 NE6       30.05R
OLATHE EXE     CLOUDY    68  62  81 E5        30.04S
SALINA         MOCLDY    73  64  73 SE5       30.02R
TOPEKA BILLARD CLOUDY    69  68  96 CALM      30.03R
TOPEKA FORBES  CLOUDY    68  65  90 CALM      30.03F
$$




USA.gov is the U.S. government's official web portal to all federal, state and local government web resources and services.